{"data":{"norad_id":54793,"epoch":"2026-05-25T00:30:49.412736Z","epoch_age_seconds":70440,"freshness":"FRESH","line1":"1 54793U 22175AM  26145.02140524  .00000086  00000+0  23514-4 0  9993","line2":"2 54793  53.2128  36.4661 0001391 120.2857 239.8273 15.08845191191799","mean_motion":15.08845191,"eccentricity":0.0001391,"inclination_deg":53.2128,"raan_deg":36.4661,"arg_perigee_deg":120.2857,"mean_anomaly_deg":239.8273,"bstar":2.3514e-5,"rev_number":19179,"period_min":95.437226336363,"perigee_km":538.76524724425,"apogee_km":540.68979715432,"semimajor_km":6917.8645221993,"source":"CELESTRAK","updated_at":"2026-05-25T13:38:17.695402Z"}}